Vorticity
nan nan nan nan nan nan nan nan nan nan nan nan nan nan nan nan nan nan nan nan nan nan nan nan nan nan nan nan nan nan nan nan nan nan nan nan nan nan nan nan nan nan nan nan nan nan nan nan nan
nan 3 6 7 6 4 7 6 10 15 8 5 6 4 4 6 11 9 9 9 5 5 5 5 12 16 12 8 8 7 8 6 5 5 5 2 3 5 5 5 9 9 7 7 7 6 6 6 nan
nan 4 8 8 10 7 8 9 8 9 4 3 3 4 7 7 7 7 10 7 4 5 5 10 18 23 15 8 7 7 7 6 5 5 4 5 6 6 5 6 8 9 8 6 6 6 6 4 nan
nan 6 7 8 10 11 15 12 5 4 6 11 6 4 7 9 12 13 8 4 5 5 6 10 15 17 14 10 8 7 5 5 4 5 4 5 5 6 7 7 7 6 5 5 6 4 4 4 nan
nan 7 7 7 8 12 10 9 4 2 5 8 10 6 4 13 15 9 6 3 4 5 7 8 11 14 12 11 9 7 6 6 3 0 2 8 9 8 9 7 6 5 5 5 5 5 4 4 nan
nan 7 6 10 8 5 5 7 5 8 9 4 5 5 10 12 3 5 4 4 6 5 5 7 7 10 12 12 10 10 7 2 3 0 1 7 11 10 8 7 5 5 4 4 5 4 4 4 nan
nan 6 7 10 7 5 9 8 3 4 3 5 2 4 9 6 6 7 4 5 6 5 5 5 6 8 9 10 12 9 7 4 2 0 -1 6 10 11 8 5 5 4 3 3 4 4 4 4 nan
nan 6 8 8 6 6 6 7 9 1 3 8 4 6 9 11 9 4 4 5 6 5 5 6 6 6 8 12 12 8 6 4 3 1 -0 3 9 8 5 3 6 4 3 3 3 3 3 4 nan
nan 6 8 9 6 11 9 8 5 6 10 5 10 12 16 12 4 4 4 5 5 5 5 6 6 6 7 10 9 7 5 3 1 1 2 0 5 5 6 7 6 4 4 3 3 2 2 3 nan
nan 7 7 10 11 14 11 4 8 11 -1 3 13 14 14 7 4 4 4 4 5 5 5 5 6 6 6 5 5 7 2 1 6 4 5 3 7 7 7 9 6 5 4 5 4 5 5 5 nan
nan 4 9 9 13 13 8 6 8 2 4 14 9 6 6 2 3 5 6 6 7 5 5 6 5 5 6 6 6 7 6 7 6 7 6 7 6 6 5 6 6 8 6 5 7 7 7 7 nan
nan 10 10 10 12 11 11 6 4 5 12 14 9 6 4 4 5 5 5 6 7 6 6 6 6 6 5 6 7 7 6 7 6 9 6 5 5 7 6 6 7 6 7 7 7 7 7 7 nan
nan 6 16 15 10 7 9 6 6 9 11 9 8 6 5 4 5 6 7 8 7 6 7 7 5 5 7 6 6 7 7 6 6 7 6 5 7 7 6 7 8 7 7 7 7 7 7 8 nan
nan 13 15 13 10 4 3 2 7 9 9 8 6 3 6 8 6 6 9 8 7 6 8 7 5 5 6 6 6 6 6 6 7 7 8 7 6 6 7 7 7 7 7 6 7 7 7 7 nan
nan 8 6 8 12 7 2 5 11 9 7 5 4 7 9 8 7 10 7 7 6 7 8 8 6 5 6 6 6 6 6 7 7 8 8 8 7 7 6 7 9 8 7 7 7 8 8 8 nan
nan 6 7 9 9 1 3 10 6 10 6 6 5 6 10 12 6 9 11 9 6 9 9 8 7 6 4 7 7 6 8 7 6 8 10 9 8 7 7 8 9 8 8 10 9 8 8 8 nan
nan 14 6 9 7 5 6 13 11 9 7 6 7 9 8 6 7 11 11 10 10 9 8 7 9 8 7 7 8 9 9 8 8 8 8 8 8 7 7 7 8 8 8 7 7 8 9 7 nan
nan 6 7 7 8 10 8 14 12 6 8 10 9 11 10 8 6 7 9 8 8 9 10 6 8 8 8 7 8 9 9 9 9 8 8 8 8 8 6 6 8 8 8 8 8 7 7 8 nan
nan 9 8 6 5 9 12 13 9 5 7 10 9 8 9 10 10 9 8 8 5 7 8 6 7 6 5 7 8 9 9 7 8 9 9 8 7 9 7 7 8 8 8 7 7 9 9 8 nan
nan 5 5 10 14 8 13 13 9 4 12 12 6 4 5 8 13 11 7 8 8 6 4 7 7 7 5 7 9 9 9 8 9 10 10 8 8 8 8 8 9 7 7 8 9 7 8 10 nan
nan 7 11 11 7 7 8 8 12 7 9 13 10 7 9 7 6 9 10 7 6 7 8 8 7 6 7 7 5 6 7 9 9 10 10 10 9 8 9 7 8 8 8 8 8 10 8 8 nan
nan 12 9 8 3 7 6 11 8 14 8 7 9 8 8 6 8 10 8 7 7 7 7 9 9 7 9 7 5 7 6 7 8 8 8 10 10 8 8 9 9 7 7 8 9 9 9 9 nan
nan 17 1 0 11 9 6 12 11 13 8 7 10 9 8 9 7 9 9 7 6 8 9 9 8 8 9 8 6 5 5 6 8 8 8 9 11 11 9 10 9 8 8 9 8 8 8 7 nan
nan 4 9 8 7 9 11 6 9 14 12 6 8 11 9 11 9 7 11 9 9 7 8 10 9 7 9 8 8 8 6 5 5 7 10 10 9 11 9 9 8 9 9 9 9 9 9 8 nan
nan 5 7 8 11 9 7 8 10 8 15 14 9 10 11 9 11 8 11 11 9 8 6 7 8 8 8 8 8 9 8 8 7 7 9 8 8 10 11 9 8 9 9 9 9 9 9 8 nan
nan 4 9 12 7 9 9 5 13 18 11 9 9 13 15 11 11 11 8 11 11 9 7 7 7 7 8 8 8 7 9 8 9 8 8 9 8 6 8 10 10 10 10 10 8 8 8 8 nan
nan 9 10 4 9 12 6 5 13 17 12 11 12 12 12 10 10 11 10 11 11 12 11 8 7 6 7 7 8 8 9 8 8 9 7 8 8 10 11 12 14 15 13 9 7 7 8 8 nan
nan 8 4 9 14 7 10 12 11 7 9 9 11 8 10 11 10 11 11 10 10 11 11 10 12 12 7 8 8 8 8 8 8 9 9 6 7 9 10 12 13 10 12 14 15 10 9 8 nan
nan 5 10 14 8 11 9 10 15 9 11 10 7 12 13 12 12 11 11 11 11 12 13 11 10 11 10 10 11 11 9 9 9 7 9 9 14 15 9 6 3 1 7 10 7 5 10 11 nan
nan nan nan nan nan nan nan nan nan nan nan nan nan nan nan nan nan nan nan nan nan nan nan nan nan nan nan nan nan nan nan nan nan nan nan nan nan nan nan nan nan nan nan nan nan nan nan nan nan
CAPE
1520 1108 1451 1705 210 6 43 32 20 36 8 13 25 73 174 179 15 0 179 626 899 820 838 855 765 870 721 1000 820 823 654 391 393 207 54 52 312 236 586 661 636 671 740 699 946 1019 1013 792 667
1261 1045 1485 1465 0 22 7 25 33 60 18 0 1 23 97 227 358 451 488 866 866 777 731 513 1012 1029 1076 989 919 795 977 520 756 359 167 191 420 713 752 690 758 824 802 972 966 921 865 712 519
227 633 815 870 0 37 34 63 104 123 117 174 245 148 112 485 513 428 570 743 711 777 601 704 1299 1318 1267 1051 968 954 1048 811 766 477 571 874 860 795 695 728 891 1013 962 1058 1083 985 896 801 743
162 369 677 123 5 90 91 134 170 85 45 84 181 202 199 371 451 563 706 747 731 773 486 1451 1448 1425 1396 1100 1102 1030 882 822 793 890 868 815 789 640 674 1005 1116 930 1097 1275 1020 1152 1036 830 678
291 518 251 35 110 50 156 250 214 169 242 220 195 271 349 613 721 785 779 882 1078 708 607 1256 1972 1410 1315 1119 1167 1065 869 1047 885 977 665 477 608 787 1022 1256 1373 1404 1378 1242 1042 821 386 216 222
13 19 7 15 26 15 118 224 161 114 338 423 376 374 431 740 879 838 970 1148 1255 629 489 688 1670 1617 1282 1371 1162 1056 963 1091 660 244 143 655 714 987 1248 1647 1428 1518 870 692 455 241 430 392 421
3 1 21 2 16 37 176 142 83 66 276 448 334 440 508 712 904 960 1125 1169 1159 713 326 342 481 1112 1438 1153 990 593 865 528 375 152 45 337 846 942 1428 1511 1593 1032 748 1250 723 462 489 634 761
1 9 2 0 0 8 116 174 64 52 27 259 302 482 530 541 878 941 1070 1060 979 879 597 438 323 173 746 864 1140 1039 1045 734 234 32 110 491 825 856 1574 1954 1725 762 1111 935 464 528 593 548 522
7 0 0 0 0 0 21 120 191 24 46 173 45 287 456 677 878 913 970 1049 1092 934 668 455 380 197 200 714 929 952 977 635 314 325 645 435 317 629 1011 1444 1717 1080 886 605 505 553 513 543 599
40 3 2 0 0 0 14 107 29 18 40 16 68 118 589 758 784 846 829 948 1047 905 750 480 337 295 207 288 206 316 520 243 21 49 183 271 390 482 890 1158 1291 1073 949 757 640 699 672 672 249
42 13 66 0 0 2 34 52 0 0 3 27 50 255 618 713 672 728 681 845 960 805 710 528 546 507 600 270 117 187 80 60 9 0 31 170 401 746 1049 1000 1080 363 799 307 477 442 358 375 136
54 198 135 0 22 0 0 18 13 8 5 20 74 166 513 365 565 624 653 769 717 681 792 741 719 723 876 557 272 225 148 87 47 49 24 24 308 457 599 611 683 389 212 210 85 0 0 0 0
115 121 174 2 0 0 0 0 0 0 0 0 50 92 194 240 394 540 709 769 654 771 757 865 735 457 891 842 489 211 220 164 96 105 29 104 213 318 462 291 184 224 116 77 40 0 0 0 7
79 31 99 53 24 36 19 0 0 0 0 0 0 0 0 20 26 233 408 666 689 789 774 685 723 403 492 516 352 204 198 215 184 108 75 108 134 142 189 147 112 125 0 0 0 0 0 10 302
49 227 71 97 37 26 0 0 0 0 0 0 0 0 0 1 0 0 149 373 672 631 677 506 506 462 242 284 204 157 177 265 299 237 101 165 80 128 181 179 134 67 4 10 0 0 0 34 133
88 84 175 358 13 5 0 0 0 0 0 0 0 0 0 4 0 0 59 333 576 17 409 215 534 586 332 187 201 190 219 269 290 212 119 140 51 126 341 99 31 27 116 132 36 45 332 300 215
68 195 334 362 218 49 0 0 0 0 0 0 0 0 4 15 0 5 39 44 7 154 336 148 305 468 311 89 167 179 166 265 250 82 115 142 60 84 527 308 125 67 204 211 216 284 194 235 288
39 413 394 265 145 176 0 0 0 0 0 0 0 5 16 9 30 20 86 67 219 141 184 209 334 311 267 115 330 199 124 132 91 166 189 209 69 32 553 441 192 450 242 93 0 0 45 159 247
166 182 231 258 238 62 0 0 0 0 0 0 4 7 0 11 24 36 193 202 169 144 170 97 255 140 197 340 535 316 278 309 265 260 502 404 386 310 359 611 255 326 283 166 162 193 287 304 238
81 48 65 92 204 305 40 0 0 0 0 0 1 0 4 3 77 92 272 306 251 208 171 97 146 162 277 478 677 670 483 379 567 567 447 499 595 628 498 546 498 487 307 258 329 388 206 185 189
33 26 192 289 594 524 204 17 0 0 0 0 12 0 14 13 200 448 411 386 401 328 144 190 224 290 392 573 802 155 102 208 805 823 652 669 522 507 345 383 232 300 389 336 290 422 208 403 264
8 22 265 622 536 525 22 130 66 58 24 27 0 56 67 62 44 524 583 522 572 507 425 289 335 452 369 748 826 607 54 11 262 621 592 557 509 482 617 842 543 338 435 602 361 286 375 242 106
8 14 138 29 18 136 59 30 134 127 117 61 49 31 78 115 113 199 648 655 642 654 638 504 501 561 457 849 932 668 434 159 272 530 678 680 728 589 806 1373 760 421 391 557 410 652 372 130 156
0 0 0 0 0 1 0 4 25 196 224 133 93 86 93 80 151 141 390 724 726 731 823 966 936 777 623 1116 969 830 692 587 658 902 1039 939 1003 973 901 1005 1034 787 684 742 606 536 247 193 2
0 0 0 9 0 0 0 5 42 171 203 259 234 192 148 53 125 163 144 455 714 874 904 1183 1092 1011 848 1208 1274 969 773 648 1014 1163 996 941 974 1191 1245 1357 917 860 854 785 448 96 0 0 0
0 0 0 0 0 0 0 0 7 0 308 199 201 243 184 91 52 117 161 85 439 898 999 1381 1353 1128 1112 1048 1223 1333 1202 1140 901 938 1008 940 891 903 742 720 950 760 769 696 170 0 0 0 0
0 0 0 0 0 0 0 0 9 15 164 137 127 84 73 152 105 147 117 92 225 722 1031 1222 1548 1384 1306 1328 1171 1105 1314 1233 1577 1659 1065 988 862 878 1093 956 886 768 712 526 107 0 0 0 0
0 0 0 1 0 0 0 0 29 100 203 57 10 25 0 1 120 100 57 67 226 556 1033 1130 1276 1581 1527 1393 1450 1570 1344 1366 1364 1632 1728 1323 1218 1024 652 375 230 104 92 43 0 0 0 0 0
3 1 0 0 0 0 0 0 0 60 94 51 0 0 0 37 52 71 79 142 383 556 1219 1208 1182 1202 1441 1465 1272 1387 1684 1830 1640 1462 1419 1480 1434 469 106 53 23 0 1 36 34 0 0 0 0
0 0 0 0 0 0 0 0 0 0 0 0 0 0 0 0 0 110 225 268 579 855 1297 1298 1330 1297 1398 1570 1413 1351 1346 1303 1481 1755 1855 1550 1010 463 412 193 57 12 0 1 10 19 11 0 0